#timestamp,LO_Frequency,Hit,StdDev 
1569945615.8,286046995.5,Y
1569945635.6,286046996.7,P
1569945655.4,286046999.3,N
1569945675.3,286046998.7,N
1569945695.1,286046998.3,N
1569945715.9,286047000.8,N
1569945735.7,286047000.8,N
1569945755.5,286046998.5,N
1569945775.4,286046996.5,N
1569945795.2,286046997.6,N
1569945815.0,286046997.1,N
1569945815.9,286046997.1,N
1569945835.8,286046996.5,N
1569945855.6,286046998.5,N
1569945875.5,286046999.0,N
1569945895.3,286046998.2,N
1569945915.1,286046998.2,N
1569945935.9,286047000.4,N
1569945955.7,286047000.0,N
1569945975.5,286046998.1,N
1569945995.4,286046998.5,N
1569946015.2,286046998.6,N
1569946035.1,286047001.1,N
1569946036.0,286047001.1,N
1569946055.8,286047000.7,N
1569946075.6,286047000.2,N
1569946095.5,286047000.8,N
1569946115.3,286047000.7,N
1569946135.2,286047000.3,N
1569946155.9,286047000.1,N
1569946175.7,286047000.7,N
1569946195.6,286047000.1,N
1569946215.4,286047002.8,N
1569946235.2,286047000.8,N
1569946255.1,286046998.2,N
1569946256.0,286046998.2,N
1569946275.8,286046998.3,N
1569946295.7,286046999.0,N
1569946315.5,286046997.4,N
1569946335.3,286046997.7,N
1569946355.2,286046996.5,N
1569946375.0,286046997.1,N
1569946375.9,286046997.1,N
1569946395.8,286046999.0,N
1569946415.6,286046998.7,N
1569946435.4,286046998.8,N
1569946455.3,286047001.0,N
1569946475.1,286047000.3,N
1569946495.9,286047002.2,N
1569946515.7,286047001.5,N
1569946535.5,286047001.8,N
1569946555.4,286047001.8,N
1569946575.2,286047001.5,N
1569946595.1,286047001.5,N
1569946596.0,286047001.5,N
1569946615.8,286047001.5,N
1569946635.6,286047002.6,N
1569946655.5,286047002.3,N
1569946675.3,286047001.9,N
1569946695.2,286047002.0,N
1569946715.9,286047004.4,N
1569946735.7,286047002.7,N
1569946755.6,286047001.2,N
1569946775.4,286047001.1,N
1569946795.2,286047001.2,N
1569946815.1,286047000.7,N
1569946816.0,286047000.7,N
1569946835.8,286046999.7,N
1569946855.7,286047000.9,N
1569946875.5,286046998.5,N
1569946895.3,286047000.6,N
1569946915.2,286047002.4,N
1569946935.0,286046999.7,N
1569946935.9,286046999.7,N
1569946955.8,286047001.0,N
1569946975.6,286047001.0,N
1569946995.4,286047000.2,N
1569947015.3,286047000.3,N
1569947035.1,286047000.0,N
1569947055.9,286047001.0,N
1569947075.7,286047000.8,N
1569947095.5,286047000.0,N
1569947115.4,286047000.6,N
1569947135.2,286047001.0,N
1569947155.0,286047000.8,N
1569947156.0,286047000.8,N
1569947175.8,286047000.8,N
1569947195.6,286047000.5,N
1569947215.5,286046998.2,N
1569947235.3,286047000.8,N
1569947255.1,286047000.8,N
1569947275.9,286047001.0,N
1569947295.7,286047001.1,N
1569947315.6,286047000.8,N
1569947335.4,286047000.0,N
1569947355.2,286047000.7,N
1569947375.1,286046998.1,N
1569947376.0,286046998.1,N
1569947395.8,286047002.7,N
1569947415.7,286047000.5,N
1569947435.5,286047000.0,N
1569947455.3,286046999.8,N
1569947475.2,286047002.0,N
1569947495.0,286047001.3,N
1569947495.9,286047001.3,N
1569947515.7,286047002.1,N
1569947535.6,286047002.0,N
1569947555.4,286047002.5,N
1569947575.3,286047001.9,N
1569947595.1,286047001.9,N
1569947615.8,286047004.2,Y
1569947635.7,286047004.4,P
1569947655.5,286047002.6,N
1569947675.4,286047002.6,N
1569947695.2,286047002.3,N
1569947715.0,286047002.1,N
1569947715.9,286047002.1,N
1569947735.8,286047000.4,N
1569947755.6,286046998.1,N
1569947775.5,286047000.0,N
1569947795.3,286046999.8,N
1569947815.1,286047000.0,N
1569947835.9,286046999.7,N
1569947855.7,286047000.1,N
1569947875.6,286047002.8,N
1569947895.4,286047002.0,N
1569947915.2,286047002.8,N
1569947935.1,286047000.6,N
1569947936.0,286047000.6,N
1569947955.8,286047001.0,N
1569947975.7,286046999.4,N
1569947995.5,286046998.7,N
1569948015.3,286047000.1,N
1569948035.2,286047000.8,N
1569948055.0,286046999.1,N
1569948055.9,286046999.1,N
1569948075.8,286046998.4,N
1569948095.6,286046998.2,N
1569948115.4,286047002.7,N
1569948135.3,286047000.3,N
1569948155.1,286046998.2,N
1569948175.9,286046996.8,N
1569948195.7,286046997.0,N
1569948215.6,286046997.9,N
1569948235.4,286046997.2,N
1569948255.2,286046997.7,N
1569948275.1,286046997.8,N
1569948276.0,286046997.8,N
1569948295.8,286046999.1,N
1569948315.7,286046998.5,N
1569948335.5,286047001.0,N
1569948355.3,286046999.9,N
1569948375.2,286046999.9,N
1569948395.0,286046998.3,N
1569948395.9,286046998.3,N
1569948415.8,286046998.5,N
1569948435.6,286046998.8,N
1569948455.4,286046996.6,N
1569948475.3,286046998.3,N
1569948495.1,286047000.7,N
1569948515.9,286047000.1,N
1569948535.7,286047001.9,N
1569948555.5,286047004.4,N
1569948575.4,286047004.4,N
1569948595.2,286047001.9,N
1569948615.1,286046999.7,N
1569948616.0,286046999.7,N
1569948635.8,286047000.1,N
1569948655.6,286047002.0,N
1569948675.5,286047002.3,N
1569948695.3,286047004.3,N
1569948715.2,286047003.9,N
1569948735.0,286047003.8,N
1569948735.9,286047003.8,N
1569948755.7,286047003.9,N
1569948775.6,286047003.4,N
1569948795.4,286047006.0,N
1569948815.3,286047005.5,N
1569948835.1,286047005.2,N
1569948855.9,286047003.6,N
1569948875.7,286047003.8,N
1569948895.5,286047005.9,N
1569948915.4,286047005.5,N
1569948935.2,286047001.9,N
1569948955.1,286047002.7,N
1569948956.0,286047002.7,N
1569948975.8,286047002.1,N
1569948995.6,286047002.2,N
1569949015.5,286047001.8,N
1569949035.3,286047003.7,N
1569949055.2,286047003.8,N
1569949075.9,286047004.2,N
1569949095.7,286047003.0,N
1569949115.6,286047003.0,N
1569949135.4,286047003.5,N
1569949155.3,286047003.2,N
1569949175.1,286047003.7,N
1569949176.0,286047003.7,N
1569949195.8,286047003.4,N
